#datetime,building,power
2022-03-12T00:00:00,mcc,55.33
2022-03-12T00:01:00,mcc,54.41
2022-03-12T00:02:00,mcc,54.15
2022-03-12T00:03:00,mcc,55.84
2022-03-12T00:04:00,mcc,54.21
2022-03-12T00:05:00,mcc,59.71
2022-03-12T00:06:00,mcc,58.17
2022-03-12T00:07:00,mcc,56.91
2022-03-12T00:08:00,mcc,58.54
2022-03-12T00:09:00,mcc,56.07
2022-03-12T00:10:00,mcc,51.38
2022-03-12T00:11:00,mcc,54.61
2022-03-12T00:12:00,mcc,52.68
2022-03-12T00:13:00,mcc,51.79
2022-03-12T00:14:00,mcc,51.79
2022-03-12T00:15:00,mcc,52.68
2022-03-12T00:16:00,mcc,53.16
2022-03-12T00:17:00,mcc,52.62
2022-03-12T00:18:00,mcc,55.07
2022-03-12T00:19:00,mcc,54.39
2022-03-12T00:20:00,mcc,55.05
2022-03-12T00:21:00,mcc,65.89
2022-03-12T00:22:00,mcc,50.96
2022-03-12T00:23:00,mcc,47.74
2022-03-12T00:24:00,mcc,48.71
2022-03-12T00:25:00,mcc,51.75
2022-03-12T00:26:00,mcc,65.00
2022-03-12T00:27:00,mcc,48.29
2022-03-12T00:28:00,mcc,47.41
2022-03-12T00:29:00,mcc,47.76
2022-03-12T00:30:00,mcc,45.98
2022-03-12T00:31:00,mcc,63.96
2022-03-12T00:32:00,mcc,52.10
2022-03-12T00:33:00,mcc,43.23
2022-03-12T00:34:00,mcc,61.51
2022-03-12T00:35:00,mcc,41.68
2022-03-12T00:36:00,mcc,40.20
2022-03-12T00:37:00,mcc,42.55
2022-03-12T00:38:00,mcc,41.35
2022-03-12T00:39:00,mcc,40.67
2022-03-12T00:40:00,mcc,44.20
2022-03-12T00:41:00,mcc,41.23
2022-03-12T00:42:00,mcc,42.40
2022-03-12T00:43:00,mcc,41.38
2022-03-12T00:44:00,mcc,42.16
2022-03-12T00:45:00,mcc,42.06
2022-03-12T00:46:00,mcc,42.83
2022-03-12T00:47:00,mcc,38.94
2022-03-12T00:48:00,mcc,36.02
2022-03-12T00:49:00,mcc,36.46
2022-03-12T00:50:00,mcc,46.39
2022-03-12T00:51:00,mcc,39.60
2022-03-12T00:52:00,mcc,41.00
2022-03-12T00:53:00,mcc,36.69
2022-03-12T00:54:00,mcc,37.55
2022-03-12T00:55:00,mcc,38.94
2022-03-12T00:56:00,mcc,37.15
2022-03-12T00:57:00,mcc,37.75
2022-03-12T00:58:00,mcc,39.67
2022-03-12T00:59:00,mcc,36.46
2022-03-12T01:00:00,mcc,37.01
2022-03-12T01:01:00,mcc,39.12
2022-03-12T01:02:00,mcc,38.27
2022-03-12T01:03:00,mcc,38.05
2022-03-12T01:04:00,mcc,38.08
2022-03-12T01:05:00,mcc,38.83
2022-03-12T01:06:00,mcc,38.49
2022-03-12T01:07:00,mcc,41.45
2022-03-12T01:08:00,mcc,39.12
2022-03-12T01:09:00,mcc,47.89
2022-03-12T01:10:00,mcc,43.82
2022-03-12T01:11:00,mcc,43.19
2022-03-12T01:12:00,mcc,41.44
2022-03-12T01:13:00,mcc,41.58
2022-03-12T01:14:00,mcc,39.62
2022-03-12T01:15:00,mcc,39.47
2022-03-12T01:16:00,mcc,38.63
2022-03-12T01:17:00,mcc,38.03
2022-03-12T01:18:00,mcc,37.56
2022-03-12T01:19:00,mcc,37.32
2022-03-12T01:20:00,mcc,39.51
2022-03-12T01:21:00,mcc,41.99
2022-03-12T01:22:00,mcc,38.97
2022-03-12T01:23:00,mcc,38.32
2022-03-12T01:24:00,mcc,41.04
2022-03-12T01:25:00,mcc,40.78
2022-03-12T01:26:00,mcc,47.83
2022-03-12T01:27:00,mcc,41.49
2022-03-12T01:28:00,mcc,38.95
2022-03-12T01:29:00,mcc,39.09
2022-03-12T01:30:00,mcc,45.69
2022-03-12T01:31:00,mcc,42.08
2022-03-12T01:32:00,mcc,39.46
2022-03-12T01:33:00,mcc,40.28
2022-03-12T01:34:00,mcc,41.52
2022-03-12T01:35:00,mcc,42.01
2022-03-12T01:36:00,mcc,42.40
2022-03-12T01:37:00,mcc,41.04
2022-03-12T01:38:00,mcc,39.21
2022-03-12T01:39:00,mcc,38.97
2022-03-12T01:40:00,mcc,39.54
2022-03-12T01:41:00,mcc,38.83
2022-03-12T01:42:00,mcc,38.45
2022-03-12T01:43:00,mcc,38.81
2022-03-12T01:44:00,mcc,39.88
2022-03-12T01:45:00,mcc,53.91
2022-03-12T01:46:00,mcc,47.69
2022-03-12T01:47:00,mcc,48.79
2022-03-12T01:48:00,mcc,46.48
2022-03-12T01:49:00,mcc,49.83
2022-03-12T01:50:00,mcc,47.56
2022-03-12T01:51:00,mcc,39.65
2022-03-12T01:52:00,mcc,38.33
2022-03-12T01:53:00,mcc,37.75
2022-03-12T01:54:00,mcc,37.88
2022-03-12T01:55:00,mcc,38.80
2022-03-12T01:56:00,mcc,39.64
2022-03-12T01:57:00,mcc,40.23
2022-03-12T01:58:00,mcc,47.07
2022-03-12T01:59:00,mcc,45.43
2022-03-12T02:00:00,mcc,44.92
2022-03-12T02:01:00,mcc,45.30
2022-03-12T02:02:00,mcc,42.59
2022-03-12T02:03:00,mcc,39.47
2022-03-12T02:04:00,mcc,40.14
2022-03-12T02:05:00,mcc,40.37
2022-03-12T02:06:00,mcc,42.06
2022-03-12T02:07:00,mcc,41.49
2022-03-12T02:08:00,mcc,44.41
2022-03-12T02:09:00,mcc,43.98
2022-03-12T02:10:00,mcc,42.38
2022-03-12T02:11:00,mcc,41.74
2022-03-12T02:12:00,mcc,44.13
2022-03-12T02:13:00,mcc,43.09
2022-03-12T02:14:00,mcc,42.52
2022-03-12T02:15:00,mcc,44.11
2022-03-12T02:16:00,mcc,42.49
2022-03-12T02:17:00,mcc,43.14
2022-03-12T02:18:00,mcc,44.74
2022-03-12T02:19:00,mcc,41.32
2022-03-12T02:20:00,mcc,42.06
2022-03-12T02:21:00,mcc,52.35
2022-03-12T02:22:00,mcc,44.41
2022-03-12T02:23:00,mcc,44.13
2022-03-12T02:24:00,mcc,55.14
2022-03-12T02:25:00,mcc,55.23
2022-03-12T02:26:00,mcc,58.64
2022-03-12T02:27:00,mcc,46.65
2022-03-12T02:28:00,mcc,40.35
2022-03-12T02:29:00,mcc,41.20
2022-03-12T02:30:00,mcc,40.35
2022-03-12T02:31:00,mcc,40.50
2022-03-12T02:32:00,mcc,42.36
2022-03-12T02:33:00,mcc,42.13
2022-03-12T02:34:00,mcc,41.20
2022-03-12T02:35:00,mcc,42.64
2022-03-12T02:36:00,mcc,41.33
2022-03-12T02:37:00,mcc,43.14
2022-03-12T02:38:00,mcc,42.59
2022-03-12T02:39:00,mcc,40.44
2022-03-12T02:40:00,mcc,40.26
2022-03-12T02:41:00,mcc,42.14
2022-03-12T02:42:00,mcc,41.75
2022-03-12T02:43:00,mcc,42.48
2022-03-12T02:44:00,mcc,45.20
2022-03-12T02:45:00,mcc,44.33
2022-03-12T02:46:00,mcc,45.16
2022-03-12T02:47:00,mcc,46.88
2022-03-12T02:48:00,mcc,44.89
2022-03-12T02:49:00,mcc,45.51
2022-03-12T02:50:00,mcc,46.81
2022-03-12T02:51:00,mcc,44.36
2022-03-12T02:52:00,mcc,44.76
2022-03-12T02:53:00,mcc,42.93
2022-03-12T02:54:00,mcc,42.39
2022-03-12T02:55:00,mcc,42.39
2022-03-12T02:56:00,mcc,45.12
2022-03-12T02:57:00,mcc,42.84
2022-03-12T02:58:00,mcc,42.65
2022-03-12T02:59:00,mcc,43.60
2022-03-12T03:00:00,mcc,42.13
2022-03-12T03:01:00,mcc,41.59
2022-03-12T03:02:00,mcc,41.59
2022-03-12T03:03:00,mcc,42.86
2022-03-12T03:04:00,mcc,41.38
2022-03-12T03:05:00,mcc,41.78
2022-03-12T03:06:00,mcc,40.76
2022-03-12T03:07:00,mcc,39.31
2022-03-12T03:08:00,mcc,40.26
2022-03-12T03:09:00,mcc,40.52
2022-03-12T03:10:00,mcc,42.57
2022-03-12T03:11:00,mcc,42.54
2022-03-12T03:12:00,mcc,50.67
2022-03-12T03:13:00,mcc,51.65
2022-03-12T03:14:00,mcc,48.34
2022-03-12T03:15:00,mcc,45.32
2022-03-12T03:16:00,mcc,54.30
2022-03-12T03:17:00,mcc,47.21
2022-03-12T03:18:00,mcc,43.41
2022-03-12T03:19:00,mcc,40.99
2022-03-12T03:20:00,mcc,43.49
2022-03-12T03:21:00,mcc,42.33
2022-03-12T03:22:00,mcc,39.95
2022-03-12T03:23:00,mcc,39.23
2022-03-12T03:24:00,mcc,39.61
2022-03-12T03:25:00,mcc,40.11
2022-03-12T03:26:00,mcc,39.05
2022-03-12T03:27:00,mcc,40.29
2022-03-12T03:28:00,mcc,39.18
2022-03-12T03:29:00,mcc,39.36
2022-03-12T03:30:00,mcc,40.20
2022-03-12T03:31:00,mcc,40.37
2022-03-12T03:32:00,mcc,41.46
2022-03-12T03:33:00,mcc,40.77
2022-03-12T03:34:00,mcc,41.41
2022-03-12T03:35:00,mcc,42.59
2022-03-12T03:36:00,mcc,41.45
2022-03-12T03:37:00,mcc,41.61
2022-03-12T03:38:00,mcc,42.89
2022-03-12T03:39:00,mcc,43.07
2022-03-12T03:40:00,mcc,41.67
2022-03-12T03:41:00,mcc,41.74
2022-03-12T03:42:00,mcc,41.34
2022-03-12T03:43:00,mcc,40.46
2022-03-12T03:44:00,mcc,38.42
2022-03-12T03:45:00,mcc,39.41
2022-03-12T03:46:00,mcc,39.51
2022-03-12T03:47:00,mcc,41.76
2022-03-12T03:48:00,mcc,38.36
2022-03-12T03:49:00,mcc,37.80
2022-03-12T03:50:00,mcc,41.02
2022-03-12T03:51:00,mcc,39.22
2022-03-12T03:52:00,mcc,40.25
2022-03-12T03:53:00,mcc,48.43
2022-03-12T03:54:00,mcc,38.44
2022-03-12T03:55:00,mcc,37.91
2022-03-12T03:56:00,mcc,40.30
2022-03-12T03:57:00,mcc,38.04
2022-03-12T03:58:00,mcc,39.04
2022-03-12T03:59:00,mcc,38.76
2022-03-12T04:00:00,mcc,34.83
2022-03-12T04:01:00,mcc,39.68
2022-03-12T04:02:00,mcc,37.71
2022-03-12T04:03:00,mcc,37.26
2022-03-12T04:04:00,mcc,39.60
2022-03-12T04:05:00,mcc,41.12
2022-03-12T04:06:00,mcc,41.16
2022-03-12T04:07:00,mcc,41.29
2022-03-12T04:08:00,mcc,39.33
2022-03-12T04:09:00,mcc,35.98
2022-03-12T04:10:00,mcc,44.31
2022-03-12T04:11:00,mcc,35.31
2022-03-12T04:12:00,mcc,34.54
2022-03-12T04:13:00,mcc,34.43
2022-03-12T04:14:00,mcc,37.12
2022-03-12T04:15:00,mcc,36.75
2022-03-12T04:16:00,mcc,40.29
2022-03-12T04:17:00,mcc,41.09
2022-03-12T04:18:00,mcc,38.47
2022-03-12T04:19:00,mcc,37.33
2022-03-12T04:20:00,mcc,37.43
2022-03-12T04:21:00,mcc,37.96
2022-03-12T04:22:00,mcc,38.97
2022-03-12T04:23:00,mcc,40.66
2022-03-12T04:24:00,mcc,39.30
2022-03-12T04:25:00,mcc,39.55
2022-03-12T04:26:00,mcc,42.05
2022-03-12T04:27:00,mcc,39.50
2022-03-12T04:28:00,mcc,38.49
2022-03-12T04:29:00,mcc,47.88
2022-03-12T04:30:00,mcc,38.55
2022-03-12T04:31:00,mcc,37.52
2022-03-12T04:32:00,mcc,39.86
2022-03-12T04:33:00,mcc,36.72
2022-03-12T04:34:00,mcc,35.47
2022-03-12T04:35:00,mcc,39.21
2022-03-12T04:36:00,mcc,36.87
2022-03-12T04:37:00,mcc,36.93
2022-03-12T04:38:00,mcc,40.80
2022-03-12T04:39:00,mcc,36.77
2022-03-12T04:40:00,mcc,34.77
2022-03-12T04:41:00,mcc,37.83
2022-03-12T04:42:00,mcc,35.39
2022-03-12T04:43:00,mcc,35.21
2022-03-12T04:44:00,mcc,38.11
2022-03-12T04:45:00,mcc,36.75
2022-03-12T04:46:00,mcc,35.69
2022-03-12T04:47:00,mcc,46.95
2022-03-12T04:48:00,mcc,37.81
2022-03-12T04:49:00,mcc,36.98
2022-03-12T04:50:00,mcc,39.29
2022-03-12T04:51:00,mcc,43.04
2022-03-12T04:52:00,mcc,43.34
2022-03-12T04:53:00,mcc,44.64
2022-03-12T04:54:00,mcc,45.25
2022-03-12T04:55:00,mcc,41.95
2022-03-12T04:56:00,mcc,40.39
2022-03-12T04:57:00,mcc,42.36
2022-03-12T04:58:00,mcc,38.45
2022-03-12T04:59:00,mcc,36.40
2022-03-12T05:00:00,mcc,38.94
2022-03-12T05:01:00,mcc,40.62
2022-03-12T05:02:00,mcc,38.98
2022-03-12T05:03:00,mcc,39.07
2022-03-12T05:04:00,mcc,40.47
2022-03-12T05:05:00,mcc,47.89
2022-03-12T05:06:00,mcc,40.56
2022-03-12T05:07:00,mcc,42.02
2022-03-12T05:08:00,mcc,40.01
2022-03-12T05:09:00,mcc,40.63
2022-03-12T05:10:00,mcc,42.51
2022-03-12T05:11:00,mcc,39.42
2022-03-12T05:12:00,mcc,39.01
2022-03-12T05:13:00,mcc,41.90
2022-03-12T05:14:00,mcc,38.32
2022-03-12T05:15:00,mcc,40.09
2022-03-12T05:16:00,mcc,42.30
2022-03-12T05:17:00,mcc,42.96
2022-03-12T05:18:00,mcc,42.18
2022-03-12T05:19:00,mcc,40.96
2022-03-12T05:20:00,mcc,42.22
2022-03-12T05:21:00,mcc,51.88
2022-03-12T05:22:00,mcc,41.95
2022-03-12T05:23:00,mcc,42.34
2022-03-12T05:24:00,mcc,40.67
2022-03-12T05:25:00,mcc,40.38
2022-03-12T05:26:00,mcc,40.69
2022-03-12T05:27:00,mcc,39.47
2022-03-12T05:28:00,mcc,38.53
2022-03-12T05:29:00,mcc,38.35
2022-03-12T05:30:00,mcc,43.80
2022-03-12T05:31:00,mcc,44.24
2022-03-12T05:32:00,mcc,43.01
2022-03-12T05:33:00,mcc,42.87
2022-03-12T05:34:00,mcc,40.69
2022-03-12T05:35:00,mcc,42.87
2022-03-12T05:36:00,mcc,44.68
2022-03-12T05:37:00,mcc,43.60
2022-03-12T05:38:00,mcc,39.91
2022-03-12T05:39:00,mcc,40.99
2022-03-12T05:40:00,mcc,36.76
2022-03-12T05:41:00,mcc,39.17
2022-03-12T05:42:00,mcc,48.55
2022-03-12T05:43:00,mcc,40.99
2022-03-12T05:44:00,mcc,39.67
2022-03-12T05:45:00,mcc,37.37
2022-03-12T05:46:00,mcc,39.77
2022-03-12T05:47:00,mcc,38.12
2022-03-12T05:48:00,mcc,38.42
2022-03-12T05:49:00,mcc,38.91
2022-03-12T05:50:00,mcc,38.61
2022-03-12T05:51:00,mcc,38.89
2022-03-12T05:52:00,mcc,37.99
2022-03-12T05:53:00,mcc,37.63
2022-03-12T05:54:00,mcc,37.53
2022-03-12T05:55:00,mcc,37.37
2022-03-12T05:56:00,mcc,37.57
2022-03-12T05:57:00,mcc,39.16
2022-03-12T05:58:00,mcc,47.46
2022-03-12T05:59:00,mcc,45.09
2022-03-12T06:00:00,mcc,45.95
2022-03-12T06:01:00,mcc,47.09
2022-03-12T06:02:00,mcc,38.54
2022-03-12T06:03:00,mcc,35.94
2022-03-12T06:04:00,mcc,35.62
2022-03-12T06:05:00,mcc,33.37
2022-03-12T06:06:00,mcc,33.43
2022-03-12T06:07:00,mcc,39.39
2022-03-12T06:08:00,mcc,38.46
2022-03-12T06:09:00,mcc,38.72
2022-03-12T06:10:00,mcc,39.30
2022-03-12T06:11:00,mcc,37.53
2022-03-12T06:12:00,mcc,37.01
2022-03-12T06:13:00,mcc,38.37
2022-03-12T06:14:00,mcc,35.78
2022-03-12T06:15:00,mcc,35.76
2022-03-12T06:16:00,mcc,35.55
2022-03-12T06:17:00,mcc,35.28
2022-03-12T06:18:00,mcc,34.97
2022-03-12T06:19:00,mcc,35.86
2022-03-12T06:20:00,mcc,37.17
2022-03-12T06:21:00,mcc,35.95
2022-03-12T06:22:00,mcc,38.86
2022-03-12T06:23:00,mcc,36.15
2022-03-12T06:24:00,mcc,37.21
2022-03-12T06:25:00,mcc,38.43
2022-03-12T06:26:00,mcc,38.20
2022-03-12T06:27:00,mcc,40.06
2022-03-12T06:28:00,mcc,49.79
2022-03-12T06:29:00,mcc,47.40
2022-03-12T06:30:00,mcc,49.74
2022-03-12T06:31:00,mcc,49.34
2022-03-12T06:32:00,mcc,40.08
2022-03-12T06:33:00,mcc,40.67
2022-03-12T06:34:00,mcc,41.00
2022-03-12T06:35:00,mcc,40.55
2022-03-12T06:36:00,mcc,38.57
2022-03-12T06:37:00,mcc,39.70
2022-03-12T06:38:00,mcc,40.58
2022-03-12T06:39:00,mcc,37.56
2022-03-12T06:40:00,mcc,39.63
2022-03-12T06:41:00,mcc,37.68
2022-03-12T06:42:00,mcc,36.21
2022-03-12T06:43:00,mcc,38.07
2022-03-12T06:44:00,mcc,35.84
2022-03-12T06:45:00,mcc,37.58
2022-03-12T06:46:00,mcc,39.88
2022-03-12T06:47:00,mcc,39.53
2022-03-12T06:48:00,mcc,35.76
2022-03-12T06:49:00,mcc,41.32
2022-03-12T06:50:00,mcc,39.41
2022-03-12T06:51:00,mcc,40.36
2022-03-12T06:52:00,mcc,39.18
2022-03-12T06:53:00,mcc,36.22
2022-03-12T06:54:00,mcc,42.59
2022-03-12T06:55:00,mcc,36.21
2022-03-12T06:56:00,mcc,36.62
2022-03-12T06:57:00,mcc,37.73
2022-03-12T06:58:00,mcc,38.63
2022-03-12T06:59:00,mcc,40.20
2022-03-12T07:00:00,mcc,43.73
2022-03-12T07:01:00,mcc,39.48
2022-03-12T07:02:00,mcc,37.62
2022-03-12T07:03:00,mcc,37.65
2022-03-12T07:04:00,mcc,37.01
2022-03-12T07:05:00,mcc,37.24
2022-03-12T07:06:00,mcc,37.36
2022-03-12T07:07:00,mcc,40.97
2022-03-12T07:08:00,mcc,34.90
2022-03-12T07:09:00,mcc,35.62
2022-03-12T07:10:00,mcc,36.98
2022-03-12T07:11:00,mcc,36.59
2022-03-12T07:12:00,mcc,35.48
2022-03-12T07:13:00,mcc,44.12
2022-03-12T07:14:00,mcc,36.73
2022-03-12T07:15:00,mcc,35.83
2022-03-12T07:16:00,mcc,37.75
2022-03-12T07:17:00,mcc,39.04
2022-03-12T07:18:00,mcc,40.13
2022-03-12T07:19:00,mcc,38.18
2022-03-12T07:20:00,mcc,40.59
2022-03-12T07:21:00,mcc,39.97
2022-03-12T07:22:00,mcc,38.47
2022-03-12T07:23:00,mcc,38.91
2022-03-12T07:24:00,mcc,40.48
2022-03-12T07:25:00,mcc,37.64
2022-03-12T07:26:00,mcc,38.17
2022-03-12T07:27:00,mcc,40.42
2022-03-12T07:28:00,mcc,37.69
2022-03-12T07:29:00,mcc,39.32
2022-03-12T07:30:00,mcc,38.19
2022-03-12T07:31:00,mcc,45.78
2022-03-12T07:32:00,mcc,36.80
2022-03-12T07:33:00,mcc,38.28
2022-03-12T07:34:00,mcc,38.08
2022-03-12T07:35:00,mcc,36.34
2022-03-12T07:36:00,mcc,38.81
2022-03-12T07:37:00,mcc,34.44
2022-03-12T07:38:00,mcc,34.14
2022-03-12T07:39:00,mcc,37.39
2022-03-12T07:40:00,mcc,37.78
2022-03-12T07:41:00,mcc,41.19
2022-03-12T07:42:00,mcc,39.95
2022-03-12T07:43:00,mcc,38.40
2022-03-12T07:44:00,mcc,37.49
2022-03-12T07:45:00,mcc,34.99
2022-03-12T07:46:00,mcc,34.42
2022-03-12T07:47:00,mcc,36.64
2022-03-12T07:48:00,mcc,37.59
2022-03-12T07:49:00,mcc,37.60
2022-03-12T07:50:00,mcc,47.76
2022-03-12T07:51:00,mcc,36.92
2022-03-12T07:52:00,mcc,36.00
2022-03-12T07:53:00,mcc,38.83
2022-03-12T07:54:00,mcc,37.32
2022-03-12T07:55:00,mcc,38.03
2022-03-12T07:56:00,mcc,38.59
2022-03-12T07:57:00,mcc,35.98
2022-03-12T07:58:00,mcc,33.68
2022-03-12T07:59:00,mcc,36.59
2022-03-12T08:00:00,mcc,35.91
2022-03-12T08:01:00,mcc,36.47
2022-03-12T08:02:00,mcc,39.70
2022-03-12T08:03:00,mcc,38.45
2022-03-12T08:04:00,mcc,38.32
2022-03-12T08:05:00,mcc,40.51
2022-03-12T08:06:00,mcc,39.81
2022-03-12T08:07:00,mcc,38.65
2022-03-12T08:08:00,mcc,48.32
2022-03-12T08:09:00,mcc,36.52
2022-03-12T08:10:00,mcc,35.14
2022-03-12T08:11:00,mcc,39.16
2022-03-12T08:12:00,mcc,38.17
2022-03-12T08:13:00,mcc,38.87
2022-03-12T08:14:00,mcc,40.68
2022-03-12T08:15:00,mcc,40.21
2022-03-12T08:16:00,mcc,39.65
2022-03-12T08:17:00,mcc,38.34
2022-03-12T08:18:00,mcc,36.67
2022-03-12T08:19:00,mcc,41.11
2022-03-12T08:20:00,mcc,38.16
2022-03-12T08:21:00,mcc,33.58
2022-03-12T08:22:00,mcc,33.93
2022-03-12T08:23:00,mcc,32.26
2022-03-12T08:24:00,mcc,33.81
2022-03-12T08:25:00,mcc,45.50
2022-03-12T08:26:00,mcc,35.31
2022-03-12T08:27:00,mcc,34.04
2022-03-12T08:28:00,mcc,36.29
2022-03-12T08:29:00,mcc,36.74
2022-03-12T08:30:00,mcc,36.26
2022-03-12T08:31:00,mcc,39.79
2022-03-12T08:32:00,mcc,39.10
2022-03-12T08:33:00,mcc,40.84
2022-03-12T08:34:00,mcc,40.71
2022-03-12T08:35:00,mcc,37.00
2022-03-12T08:36:00,mcc,36.26
2022-03-12T08:37:00,mcc,38.49
2022-03-12T08:38:00,mcc,37.34
2022-03-12T08:39:00,mcc,37.59
2022-03-12T08:40:00,mcc,39.83
2022-03-12T08:41:00,mcc,36.73
2022-03-12T08:42:00,mcc,37.76
2022-03-12T08:43:00,mcc,47.93
2022-03-12T08:44:00,mcc,38.07
2022-03-12T08:45:00,mcc,39.25
2022-03-12T08:46:00,mcc,38.89
2022-03-12T08:47:00,mcc,36.85
2022-03-12T08:48:00,mcc,35.55
2022-03-12T08:49:00,mcc,38.14
2022-03-12T08:50:00,mcc,36.59
2022-03-12T08:51:00,mcc,39.17
2022-03-12T08:52:00,mcc,38.81
2022-03-12T08:53:00,mcc,39.38
2022-03-12T08:54:00,mcc,38.72
2022-03-12T08:55:00,mcc,37.73
2022-03-12T08:56:00,mcc,37.04
2022-03-12T08:57:00,mcc,36.16
2022-03-12T08:58:00,mcc,36.81
2022-03-12T08:59:00,mcc,37.41
2022-03-12T09:00:00,mcc,45.11
2022-03-12T09:01:00,mcc,36.42
2022-03-12T09:02:00,mcc,39.15
2022-03-12T09:03:00,mcc,42.60
2022-03-12T09:04:00,mcc,38.01
2022-03-12T09:05:00,mcc,36.34
2022-03-12T09:06:00,mcc,38.78
2022-03-12T09:07:00,mcc,37.43
2022-03-12T09:08:00,mcc,37.78
2022-03-12T09:09:00,mcc,39.63
2022-03-12T09:10:00,mcc,39.16
2022-03-12T09:11:00,mcc,39.73
2022-03-12T09:12:00,mcc,40.88
2022-03-12T09:13:00,mcc,37.47
2022-03-12T09:14:00,mcc,36.58
2022-03-12T09:15:00,mcc,38.07
2022-03-12T09:16:00,mcc,37.50
2022-03-12T09:17:00,mcc,35.14
2022-03-12T09:18:00,mcc,46.85
2022-03-12T09:19:00,mcc,35.23
2022-03-12T09:20:00,mcc,39.65
2022-03-12T09:21:00,mcc,41.36
2022-03-12T09:22:00,mcc,38.35
2022-03-12T09:23:00,mcc,37.15
2022-03-12T09:24:00,mcc,37.41
2022-03-12T09:25:00,mcc,36.92
2022-03-12T09:26:00,mcc,35.81
2022-03-12T09:27:00,mcc,35.67
2022-03-12T09:28:00,mcc,36.70
2022-03-12T09:29:00,mcc,37.62
2022-03-12T09:30:00,mcc,36.78
2022-03-12T09:31:00,mcc,36.73
2022-03-12T09:32:00,mcc,39.87
2022-03-12T09:33:00,mcc,36.37
2022-03-12T09:34:00,mcc,39.14
2022-03-12T09:35:00,mcc,39.07
2022-03-12T09:36:00,mcc,35.81
2022-03-12T09:37:00,mcc,37.28
2022-03-12T09:38:00,mcc,39.86
2022-03-12T09:39:00,mcc,35.57
2022-03-12T09:40:00,mcc,37.22
2022-03-12T09:41:00,mcc,39.16
2022-03-12T09:42:00,mcc,36.06
2022-03-12T09:43:00,mcc,36.45
2022-03-12T09:44:00,mcc,38.35
2022-03-12T09:45:00,mcc,37.12
2022-03-12T09:46:00,mcc,38.55
2022-03-12T09:47:00,mcc,39.76
2022-03-12T09:48:00,mcc,35.53
2022-03-12T09:49:00,mcc,34.49
2022-03-12T09:50:00,mcc,37.68
2022-03-12T09:51:00,mcc,36.65
2022-03-12T09:52:00,mcc,37.23
2022-03-12T09:53:00,mcc,38.88
2022-03-12T09:54:00,mcc,45.56
2022-03-12T09:55:00,mcc,39.95
2022-03-12T09:56:00,mcc,41.31
2022-03-12T09:57:00,mcc,37.78
2022-03-12T09:58:00,mcc,37.71
2022-03-12T09:59:00,mcc,38.57
2022-03-12T10:00:00,mcc,35.16
2022-03-12T10:01:00,mcc,35.24
2022-03-12T10:02:00,mcc,38.20
2022-03-12T10:03:00,mcc,34.94
2022-03-12T10:04:00,mcc,36.27
2022-03-12T10:05:00,mcc,37.98
2022-03-12T10:06:00,mcc,37.52
2022-03-12T10:07:00,mcc,39.52
2022-03-12T10:08:00,mcc,42.68
2022-03-12T10:09:00,mcc,40.38
2022-03-12T10:10:00,mcc,39.89
2022-03-12T10:11:00,mcc,50.15
2022-03-12T10:12:00,mcc,56.88
2022-03-12T10:13:00,mcc,50.21
2022-03-12T10:14:00,mcc,50.36
2022-03-12T10:15:00,mcc,40.38
2022-03-12T10:16:00,mcc,40.85
2022-03-12T10:17:00,mcc,39.57
2022-03-12T10:18:00,mcc,36.64
2022-03-12T10:19:00,mcc,38.59
2022-03-12T10:20:00,mcc,41.65
2022-03-12T10:21:00,mcc,39.58
2022-03-12T10:22:00,mcc,41.78
2022-03-12T10:23:00,mcc,46.17
2022-03-12T10:24:00,mcc,39.43
2022-03-12T10:25:00,mcc,39.29
2022-03-12T10:26:00,mcc,40.04
2022-03-12T10:27:00,mcc,47.31
2022-03-12T10:28:00,mcc,46.96
2022-03-12T10:29:00,mcc,50.03
2022-03-12T10:30:00,mcc,48.30
2022-03-12T10:31:00,mcc,41.95
2022-03-12T10:32:00,mcc,42.22
2022-03-12T10:33:00,mcc,40.99
2022-03-12T10:34:00,mcc,40.25
2022-03-12T10:35:00,mcc,40.80
2022-03-12T10:36:00,mcc,36.83
2022-03-12T10:37:00,mcc,37.76
2022-03-12T10:38:00,mcc,38.52
2022-03-12T10:39:00,mcc,39.08
2022-03-12T10:40:00,mcc,39.79
2022-03-12T10:41:00,mcc,38.07
2022-03-12T10:42:00,mcc,38.98
2022-03-12T10:43:00,mcc,38.19
2022-03-12T10:44:00,mcc,39.68
2022-03-12T10:45:00,mcc,38.13
2022-03-12T10:46:00,mcc,38.02
2022-03-12T10:47:00,mcc,46.74
2022-03-12T10:48:00,mcc,39.36
2022-03-12T10:49:00,mcc,38.94
2022-03-12T10:50:00,mcc,40.21
2022-03-12T10:51:00,mcc,37.71
2022-03-12T10:52:00,mcc,39.02
2022-03-12T10:53:00,mcc,38.96
2022-03-12T10:54:00,mcc,39.25
2022-03-12T10:55:00,mcc,39.44
2022-03-12T10:56:00,mcc,38.57
2022-03-12T10:57:00,mcc,40.30
2022-03-12T10:58:00,mcc,37.70
2022-03-12T10:59:00,mcc,38.39
2022-03-12T11:00:00,mcc,39.56
2022-03-12T11:01:00,mcc,40.08
2022-03-12T11:02:00,mcc,39.25
2022-03-12T11:03:00,mcc,39.27
2022-03-12T11:04:00,mcc,39.19
2022-03-12T11:05:00,mcc,42.72
2022-03-12T11:06:00,mcc,50.36
2022-03-12T11:07:00,mcc,37.95
2022-03-12T11:08:00,mcc,39.85
2022-03-12T11:09:00,mcc,39.45
2022-03-12T11:10:00,mcc,41.14
2022-03-12T11:11:00,mcc,42.17
2022-03-12T11:12:00,mcc,41.51
2022-03-12T11:13:00,mcc,44.73
2022-03-12T11:14:00,mcc,41.88
2022-03-12T11:15:00,mcc,41.37
2022-03-12T11:16:00,mcc,41.12
2022-03-12T11:17:00,mcc,49.73
2022-03-12T11:18:00,mcc,48.10
2022-03-12T11:19:00,mcc,47.88
2022-03-12T11:20:00,mcc,46.13
2022-03-12T11:21:00,mcc,43.81
2022-03-12T11:22:00,mcc,43.57
2022-03-12T11:23:00,mcc,44.49
2022-03-12T11:24:00,mcc,53.30
2022-03-12T11:25:00,mcc,48.01
2022-03-12T11:26:00,mcc,46.06
2022-03-12T11:27:00,mcc,47.67
2022-03-12T11:28:00,mcc,48.50
2022-03-12T11:29:00,mcc,46.94
2022-03-12T11:30:00,mcc,47.63
2022-03-12T11:31:00,mcc,49.95
2022-03-12T11:32:00,mcc,47.27
2022-03-12T11:33:00,mcc,44.83
2022-03-12T11:34:00,mcc,48.72
2022-03-12T11:35:00,mcc,46.04
2022-03-12T11:36:00,mcc,48.65
2022-03-12T11:37:00,mcc,52.06
2022-03-12T11:38:00,mcc,45.91
2022-03-12T11:39:00,mcc,46.93
2022-03-12T11:40:00,mcc,47.43
2022-03-12T11:41:00,mcc,46.71
2022-03-12T11:42:00,mcc,46.33
2022-03-12T11:43:00,mcc,46.75
2022-03-12T11:44:00,mcc,46.86
2022-03-12T11:45:00,mcc,45.16
2022-03-12T11:46:00,mcc,44.80
2022-03-12T11:47:00,mcc,46.76
2022-03-12T11:48:00,mcc,48.91
2022-03-12T11:49:00,mcc,47.03
2022-03-12T11:50:00,mcc,44.72
2022-03-12T11:51:00,mcc,43.91
2022-03-12T11:52:00,mcc,45.70
2022-03-12T11:53:00,mcc,43.60
2022-03-12T11:54:00,mcc,45.56
2022-03-12T11:55:00,mcc,48.87
2022-03-12T11:56:00,mcc,51.41
2022-03-12T11:57:00,mcc,50.89
2022-03-12T11:58:00,mcc,54.24
2022-03-12T11:59:00,mcc,53.30
2022-03-12T12:00:00,mcc,56.47
2022-03-12T12:01:00,mcc,49.03
2022-03-12T12:02:00,mcc,46.88
2022-03-12T12:03:00,mcc,47.15
2022-03-12T12:04:00,mcc,49.18
2022-03-12T12:05:00,mcc,48.14
2022-03-12T12:06:00,mcc,47.33
2022-03-12T12:07:00,mcc,50.43
2022-03-12T12:08:00,mcc,48.38
2022-03-12T12:09:00,mcc,48.67
2022-03-12T12:10:00,mcc,47.45
2022-03-12T12:11:00,mcc,47.12
2022-03-12T12:12:00,mcc,46.96
2022-03-12T12:13:00,mcc,47.52
2022-03-12T12:14:00,mcc,47.86
2022-03-12T12:15:00,mcc,48.63
2022-03-12T12:16:00,mcc,46.53
2022-03-12T12:17:00,mcc,48.38
2022-03-12T12:18:00,mcc,55.10
2022-03-12T12:19:00,mcc,51.56
2022-03-12T12:20:00,mcc,54.14
2022-03-12T12:21:00,mcc,53.70
2022-03-12T12:22:00,mcc,51.21
2022-03-12T12:23:00,mcc,52.75
2022-03-12T12:24:00,mcc,50.39
2022-03-12T12:25:00,mcc,47.37
2022-03-12T12:26:00,mcc,47.95
2022-03-12T12:27:00,mcc,47.88
2022-03-12T12:28:00,mcc,46.60
2022-03-12T12:29:00,mcc,48.16
2022-03-12T12:30:00,mcc,45.43
2022-03-12T12:31:00,mcc,43.38
2022-03-12T12:32:00,mcc,47.29
2022-03-12T12:33:00,mcc,48.16
2022-03-12T12:34:00,mcc,46.03
2022-03-12T12:35:00,mcc,45.66
2022-03-12T12:36:00,mcc,53.57
2022-03-12T12:37:00,mcc,45.94
2022-03-12T12:38:00,mcc,45.29
2022-03-12T12:39:00,mcc,47.82
2022-03-12T12:40:00,mcc,48.02
2022-03-12T12:41:00,mcc,49.26
2022-03-12T12:42:00,mcc,48.95
2022-03-12T12:43:00,mcc,46.95
2022-03-12T12:44:00,mcc,48.28
2022-03-12T12:45:00,mcc,51.85
2022-03-12T12:46:00,mcc,47.77
2022-03-12T12:47:00,mcc,49.56
2022-03-12T12:48:00,mcc,52.93
2022-03-12T12:49:00,mcc,53.06
2022-03-12T12:50:00,mcc,48.31
2022-03-12T12:51:00,mcc,49.72
2022-03-12T12:52:00,mcc,49.52
2022-03-12T12:53:00,mcc,58.47
2022-03-12T12:54:00,mcc,49.66
2022-03-12T12:55:00,mcc,50.06
2022-03-12T12:56:00,mcc,46.90
2022-03-12T12:57:00,mcc,48.88
2022-03-12T12:58:00,mcc,49.53
2022-03-12T12:59:00,mcc,51.40
2022-03-12T13:00:00,mcc,46.04
2022-03-12T13:01:00,mcc,44.47
2022-03-12T13:02:00,mcc,46.46
2022-03-12T13:03:00,mcc,44.40
2022-03-12T13:04:00,mcc,46.40
2022-03-12T13:05:00,mcc,45.46
2022-03-12T13:06:00,mcc,45.83
2022-03-12T13:07:00,mcc,45.73
2022-03-12T13:08:00,mcc,45.45
2022-03-12T13:09:00,mcc,47.78
2022-03-12T13:10:00,mcc,49.29
2022-03-12T13:11:00,mcc,50.03
2022-03-12T13:12:00,mcc,59.99
2022-03-12T13:13:00,mcc,49.53
2022-03-12T13:14:00,mcc,49.46
2022-03-12T13:15:00,mcc,53.99
2022-03-12T13:16:00,mcc,49.76
2022-03-12T13:17:00,mcc,50.49
2022-03-12T13:18:00,mcc,49.79